Location: Czu?�w
(50.1404°N, 18.9919°E)
Time: 03:41:35
(UTC+00:00)

COSMOS 2455 - Pass Details

Date: 27 October 2020
Orbit: 899 x 911 km, 67.1° (Epoch: 24 November)

Event Time Altitude Azimuth Distance (km) Brightness Sun altitude
Rises 18:04:07 0° 317° (NW) 3,552 6.7 -25.4°
Reaches altitude 10° 18:07:23 10° 334° (NNW) 2,608 5.7 -25.9°
Maximum altitude 18:11:44 20° 21° (NNE) 1,983 4.5 -26.6°
Enters shadow 18:11:58 20° 24° (NNE) 1,985 4.5 -26.6°
